Total_Precipitation_Accumulation
0.50 0.64 0.54 0.34 0.32 0.30 0.27 0.32 0.28 0.19 0.18 0.24 0.24 0.18 0.12 0.11 0.11 0.12 0.12 0.12 0.12 0.11 0.10 0.12 0.18 0.23 0.32 0.44 0.48 0.56 0.62 0.72 0.85 0.95 1.09 1.06 1.01 1.03 1.06 1.02 1.00 0.98 1.05 1.05
0.62 0.57 0.30 0.21 0.24 0.31 0.34 0.38 0.30 0.22 0.18 0.28 0.28 0.19 0.11 0.11 0.11 0.11 0.10 0.12 0.14 0.11 0.10 0.12 0.18 0.23 0.30 0.43 0.49 0.56 0.65 0.75 0.82 0.89 0.97 1.05 1.02 1.04 1.10 1.06 1.04 1.01 0.99 1.03
0.46 0.32 0.17 0.26 0.34 0.43 0.41 0.34 0.26 0.25 0.23 0.30 0.36 0.29 0.14 0.12 0.10 0.10 0.10 0.10 0.15 0.16 0.13 0.14 0.22 0.28 0.32 0.42 0.50 0.56 0.66 0.75 0.81 0.96 1.06 1.14 1.24 1.24 1.26 1.25 1.14 1.05 1.00 0.97
0.36 0.21 0.21 0.32 0.37 0.44 0.44 0.23 0.22 0.26 0.41 0.48 0.42 0.48 0.18 0.14 0.13 0.12 0.10 0.09 0.12 0.14 0.14 0.15 0.20 0.29 0.33 0.39 0.50 0.59 0.69 0.76 0.80 0.99 1.14 1.11 1.18 1.18 1.11 1.07 1.10 1.07 1.02 0.98
0.47 0.25 0.27 0.35 0.27 0.30 0.34 0.21 0.25 0.34 0.47 0.56 0.42 0.49 0.25 0.14 0.14 0.11 0.09 0.08 0.10 0.12 0.13 0.13 0.14 0.20 0.29 0.36 0.47 0.58 0.72 0.82 0.84 0.92 1.11 1.15 1.09 1.05 1.05 1.09 1.08 1.11 1.11 1.05
0.43 0.28 0.32 0.28 0.19 0.23 0.33 0.39 0.45 0.50 0.76 0.95 0.37 0.37 0.29 0.23 0.24 0.15 0.09 0.08 0.10 0.10 0.12 0.12 0.11 0.13 0.25 0.37 0.47 0.55 0.68 0.81 0.87 0.87 0.99 1.15 1.10 1.05 1.04 1.08 1.12 1.11 1.14 1.12
0.52 0.37 0.31 0.26 0.32 0.37 0.54 0.84 1.19 1.20 1.24 0.77 0.17 0.25 0.29 0.22 0.20 0.19 0.14 0.10 0.10 0.10 0.14 0.14 0.12 0.13 0.20 0.32 0.43 0.53 0.63 0.72 0.80 0.83 0.87 0.97 1.09 1.06 0.98 0.93 0.99 1.07 1.14 1.10
0.57 0.41 0.33 0.32 0.34 0.47 0.56 0.76 1.00 0.90 0.58 0.23 0.10 0.21 0.22 0.15 0.12 0.13 0.10 0.09 0.10 0.09 0.10 0.11 0.13 0.15 0.18 0.23 0.30 0.43 0.54 0.67 0.79 0.84 0.83 0.88 0.98 1.09 1.01 0.93 0.91 0.95 1.01 0.97
0.62 0.38 0.22 0.23 0.23 0.35 0.54 0.58 0.50 0.65 0.48 0.30 0.20 0.17 0.14 0.07 0.06 0.08 0.09 0.08 0.09 0.09 0.09 0.10 0.12 0.15 0.17 0.22 0.25 0.36 0.45 0.59 0.77 0.89 0.88 0.88 0.92 1.00 1.02 0.93 0.90 0.91 0.92 0.92
0.67 0.50 0.22 0.19 0.31 0.40 0.45 0.52 0.66 0.97 0.81 0.42 0.22 0.19 0.20 0.12 0.10 0.09 0.10 0.10 0.09 0.10 0.11 0.11 0.12 0.15 0.17 0.20 0.23 0.31 0.39 0.47 0.60 0.79 0.92 0.92 0.89 0.89 0.96 0.98 0.95 0.91 0.90 0.90
0.69 0.69 0.39 0.32 0.48 0.55 0.55 0.70 0.90 0.94 0.66 0.47 0.29 0.24 0.24 0.17 0.14 0.13 0.11 0.11 0.11 0.10 0.11 0.11 0.13 0.15 0.18 0.21 0.26 0.32 0.39 0.45 0.51 0.61 0.77 0.89 0.90 0.93 0.97 1.01 0.97 0.96 0.93 0.92
0.65 0.82 0.54 0.31 0.31 0.34 0.48 0.62 0.79 0.95 0.66 0.35 0.30 0.24 0.19 0.14 0.13 0.13 0.11 0.09 0.08 0.08 0.09 0.09 0.10 0.16 0.19 0.24 0.29 0.34 0.42 0.44 0.47 0.55 0.65 0.77 0.87 0.92 0.97 0.95 1.00 1.05 1.03 0.95
0.90 1.21 0.99 0.61 0.50 0.49 0.59 0.54 0.58 0.68 0.63 0.39 0.28 0.17 0.11 0.09 0.08 0.09 0.10 0.10 0.09 0.07 0.08 0.09 0.11 0.16 0.21 0.25 0.28 0.35 0.43 0.43 0.45 0.55 0.64 0.73 0.84 0.87 0.88 0.85 0.91 1.07 1.18 1.13
1.18 1.29 0.91 0.70 0.56 0.53 0.53 0.44 0.41 0.64 0.75 0.38 0.17 0.12 0.08 0.09 0.09 0.09 0.10 0.12 0.10 0.08 0.08 0.10 0.13 0.16 0.19 0.22 0.26 0.32 0.40 0.46 0.49 0.52 0.61 0.69 0.77 0.79 0.78 0.78 0.80 0.94 1.11 1.20
1.05 1.05 0.47 0.23 0.20 0.27 0.29 0.26 0.29 0.39 0.38 0.29 0.14 0.13 0.13 0.13 0.14 0.14 0.13 0.13 0.12 0.09 0.08 0.09 0.12 0.15 0.20 0.24 0.27 0.30 0.36 0.46 0.53 0.52 0.59 0.62 0.68 0.76 0.76 0.74 0.78 0.88 1.01 1.08
1.00 0.96 0.46 0.24 0.15 0.20 0.24 0.19 0.19 0.20 0.15 0.13 0.11 0.13 0.15 0.16 0.14 0.14 0.13 0.12 0.13 0.11 0.09 0.10 0.12 0.16 0.22 0.27 0.29 0.33 0.37 0.42 0.50 0.51 0.56 0.58 0.66 0.76 0.78 0.73 0.76 0.87 0.97 1.03
1.00 0.99 0.82 0.44 0.18 0.37 0.40 0.19 0.16 0.16 0.15 0.13 0.15 0.16 0.15 0.15 0.15 0.16 0.15 0.14 0.14 0.12 0.12 0.11 0.14 0.19 0.23 0.28 0.29 0.34 0.36 0.40 0.47 0.49 0.51 0.57 0.65 0.70 0.78 0.76 0.78 0.87 0.96 1.00
0.78 0.94 1.13 0.74 0.54 0.76 0.33 0.13 0.12 0.15 0.16 0.14 0.13 0.12 0.13 0.16 0.17 0.19 0.17 0.17 0.16 0.15 0.17 0.16 0.18 0.21 0.22 0.26 0.25 0.29 0.33 0.42 0.49 0.50 0.47 0.53 0.61 0.64 0.75 0.80 0.81 0.90 0.98 0.95
0.38 0.81 1.27 1.04 0.75 0.36 0.16 0.15 0.19 0.25 0.25 0.17 0.12 0.08 0.08 0.11 0.15 0.19 0.16 0.15 0.16 0.18 0.20 0.20 0.20 0.21 0.21 0.24 0.24 0.24 0.28 0.39 0.48 0.52 0.46 0.48 0.57 0.63 0.71 0.78 0.84 0.90 0.98 0.92
0.39 0.76 1.35 1.15 0.82 0.34 0.18 0.14 0.16 0.25 0.33 0.19 0.13 0.10 0.08 0.12 0.21 0.22 0.17 0.15 0.16 0.16 0.18 0.20 0.19 0.19 0.21 0.24 0.25 0.23 0.25 0.33 0.44 0.51 0.43 0.45 0.52 0.55 0.63 0.71 0.81 0.88 0.88 0.86
0.75 1.17 1.35 0.96 0.71 0.24 0.15 0.16 0.18 0.39 0.42 0.19 0.13 0.12 0.12 0.16 0.20 0.19 0.18 0.19 0.19 0.19 0.18 0.17 0.18 0.19 0.22 0.25 0.24 0.25 0.27 0.29 0.38 0.50 0.46 0.48 0.51 0.54 0.61 0.69 0.73 0.79 0.83 0.82
0.61 0.86 0.83 0.71 0.74 0.34 0.19 0.25 0.40 0.44 0.22 0.14 0.12 0.10 0.10 0.10 0.09 0.10 0.14 0.19 0.22 0.21 0.18 0.18 0.18 0.18 0.19 0.22 0.25 0.27 0.30 0.31 0.37 0.46 0.48 0.52 0.57 0.59 0.63 0.67 0.66 0.68 0.78 0.82
0.41 0.56 0.63 0.57 0.41 0.23 0.20 0.26 0.28 0.21 0.17 0.13 0.11 0.10 0.09 0.08 0.08 0.10 0.14 0.19 0.22 0.21 0.20 0.20 0.19 0.18 0.18 0.20 0.25 0.31 0.35 0.35 0.40 0.45 0.47 0.53 0.60 0.63 0.65 0.63 0.64 0.67 0.74 0.81
0.34 0.34 0.42 0.37 0.22 0.16 0.15 0.16 0.15 0.13 0.12 0.11 0.10 0.10 0.10 0.09 0.08 0.09 0.12 0.17 0.20 0.22 0.21 0.22 0.22 0.20 0.20 0.20 0.23 0.32 0.38 0.37 0.41 0.45 0.46 0.52 0.56 0.63 0.66 0.62 0.59 0.62 0.69 0.80
0.25 0.28 0.32 0.26 0.15 0.14 0.14 0.12 0.11 0.10 0.09 0.09 0.09 0.07 0.08 0.08 0.09 0.10 0.11 0.16 0.21 0.23 0.23 0.22 0.24 0.22 0.21 0.22 0.25 0.33 0.37 0.38 0.42 0.42 0.42 0.46 0.48 0.59 0.69 0.68 0.63 0.61 0.62 0.76
0.12 0.16 0.21 0.19 0.13 0.16 0.15 0.12 0.10 0.10 0.10 0.10 0.10 0.09 0.07 0.08 0.09 0.11 0.11 0.14 0.22 0.26 0.25 0.23 0.24 0.23 0.24 0.26 0.30 0.35 0.38 0.38 0.39 0.40 0.40 0.42 0.46 0.54 0.64 0.67 0.69 0.75 0.73 0.74